Flag for Brazil Weather past 2 weeks in Santarém, Para, Brazil

Now
81 °F

Scattered clouds.


Feels Like: 86 °F
Forecast: 76 / 93 °F
Wind: 12 mph from East

Location: Santarem-Aeroporto

Current Time: Sep 21, 2014 at 7:56:04 AM

Latest Report: Sep 21, 2014 at 7:00 AM


Visibility: N/A

Pressure: 29.89 "Hg

Humidity: 84%

Dew point: 75 °F

Location of SantarémLocation

Historic Weather in Santarém — Graph

°F

Santarém temperature yesterday

Maximum temperature yesterday: 90 °F (at 3:00 PM)
Minimum temperature yesterday: 73 °F (at 3:00 AM)
Average temperature yesterday: 81 °F

Past Weeks' High & Low Weather Summary

 TemperatureHumidityPressure
High91 °F (Sep 8, 3:00 PM)100% (Sep 8, 1:00 AM)29.98 "Hg (Sep 8, 1:00 AM)
Low73 °F (Sep 10, 4:00 AM)52% (Sep 9, 4:00 PM)29.71 "Hg (Sep 11, 5:00 PM)
Average82 °F78%29.86 "Hg
* Reported Sep 6 6:00 AM — Sep 21 6:00 AM, Santarém, Weather by CustomWeather, © 2014

Note: Actual official high and low records may vary slightly from our data, if they occured in-between our weather recording intervals... More about our weather records

Advertising

Santarém weather history for previous 24 hours

 ConditionsComfort  
Time TempWeatherWind HumidityBarometerVisibility
6:00 AM
Sep 21
79 °FPassing clouds.5 mph94%29.86 "HgN/A
5:00 AM73 °FClear.No wind100%29.83 "Hg10 mi
4:00 AM73 °FClear.No wind100%29.83 "Hg10 mi
3:00 AM73 °FClear.No wind100%29.83 "Hg10 mi
2:00 AM75 °FClear.No wind100%29.86 "Hg10 mi
1:00 AM75 °FClear.No wind100%29.86 "Hg10 mi
12:00 AM75 °FClear.1 mph94%29.86 "Hg10 mi
11:00 PM
Sep 20
77 °FClear.3 mph94%29.89 "Hg10 mi
10:00 PM79 °FClear.6 mph94%29.89 "Hg10 mi
9:00 PM81 °FClear.3 mph84%29.86 "Hg10 mi
8:00 PM82 °FClear.3 mph79%29.86 "Hg10 mi
7:00 PM84 °FClear.7 mph70%29.83 "Hg10 mi
6:00 PM88 °FPassing clouds.12 mph66%29.83 "HgN/A
5:00 PM90 °FPassing clouds.10 mph59%29.83 "HgN/A
4:00 PM90 °FPassing clouds.12 mph59%29.83 "HgN/A
3:00 PM90 °FPassing clouds.15 mph59%29.86 "HgN/A
10:00 AM86 °FPassing clouds.18 mph70%29.95 "HgN/A
9:00 AM84 °FPassing clouds.15 mph74%29.95 "HgN/A
8:00 AM82 °FSunny.10 mph79%29.92 "Hg10 mi
7:00 AM81 °FSunny.13 mph79%29.89 "Hg10 mi
Weather by CustomWeather, © 2014

See weather overviewHow to use our weather pages